Terminal Aerodrome Forecast
Issued by NWS

Home | Current Version | Previous Version | Graphics & Text | Print | Product List | Glossary On
Versions: 1 2 3 4 5 6 7 8 9 10 11 12 13 14 15 16 17 18 19 20 21 22 23 24 25 26 27 28 29 30 31
000
FTUS43 KLOT 020303 AAA
TAFORD
TAF AMD
KORD 020303Z 0203/0306 VRB02KT P6SM BKN150
     FM021600 22010KT P6SM FEW060=

USA.gov is the U.S. government's official web portal to all federal, state and local government web resources and services.